Flag for Norway Weather past 2 weeks in Skien, Norway

Now
39 °F

Passing clouds.


Feels Like: 31 °F
Forecast: 27 / 39 °F
Wind: 15 mph from Southwest

Location: Torp

Current Time: Mar 2, 2015 at 1:04:47 AM

Latest Report: Mar 2, 2015 at 12:20 AM


Visibility: N/A

Pressure: 29.06 "Hg

Humidity: 93%

Dew point: 37 °F

Location of SkienLocation

Historic Weather in Skien — Graph

°F

Skien temperature yesterday

Maximum temperature yesterday: 41 °F (at 4:20 PM)
Minimum temperature yesterday: 34 °F (at 7:50 AM)
Average temperature yesterday: 37 °F

Past Weeks' High & Low Weather Summary

 TemperatureHumidityPressure
High43 °F (Feb 18, 2:20 AM)100% (Feb 16, 11:50 PM)30.48 "Hg (Feb 16, 11:50 PM)
Low28 °F (Feb 21, 6:20 AM)42% (Feb 22, 2:20 PM)28.97 "Hg (Feb 23, 11:50 AM)
Average37 °F88%29.69 "Hg
* Reported Feb 14 11:20 PM — Mar 1 11:50 PM, Skien, Weather by CustomWeather, © 2015

Note: Actual official high and low records may vary slightly from our data, if they occured in-between our weather recording intervals... More about our weather records

Advertising

Skien weather history for previous 24 hours

 ConditionsComfort  
Time TempWeatherWind HumidityBarometerVisibility
11:50 PM
Sun, Mar 1
39 °FPassing clouds.15 mph93%29.03 "HgN/A
11:20 PM39 °FPassing clouds.16 mph93%29.03 "HgN/A
10:50 PM39 °FPassing clouds.15 mph93%29.03 "HgN/A
10:20 PM39 °FPassing clouds.16 mph93%29.03 "HgN/A
9:50 PM39 °FPassing clouds.15 mph87%29.03 "HgN/A
9:20 PM39 °FPassing clouds.13 mph93%29.03 "HgN/A
8:20 PM39 °FPassing clouds.14 mph93%29.03 "HgN/A
7:50 PM39 °FLow clouds.15 mph93%29.00 "HgN/A
7:20 PM39 °FPassing clouds.21 mph93%29.00 "HgN/A
6:50 PM39 °FDrizzle. Low clouds.23 mph93%29.00 "Hg6 mi
6:20 PM39 °FLow clouds.24 mph93%29.00 "HgN/A
5:50 PM39 °FLow clouds.23 mph93%29.00 "Hg6 mi
5:20 PM39 °FLow clouds.22 mph93%29.00 "Hg4 mi
4:50 PM41 °FLow clouds.21 mph93%29.00 "Hg4 mi
4:20 PM41 °FLow clouds.18 mph93%29.03 "Hg4 mi
3:50 PM39 °FDrizzle. Fog.20 mph100%29.03 "Hg2 mi
3:20 PM39 °FDrizzle. Fog.21 mph100%29.03 "Hg2 mi
2:50 PM39 °FDrizzle. Fog.22 mph100%29.03 "Hg2 mi
2:20 PM39 °FFog.22 mph100%29.03 "Hg2 mi
1:50 PM37 °FLight rain. Fog.20 mph100%29.06 "Hg3 mi
1:20 PM37 °FDrizzle. Fog.18 mph100%29.06 "Hg2 mi
12:50 PM37 °FRain. Low clouds.23 mph93%29.06 "Hg4 mi
12:20 PM36 °FLight rain. Fog.23 mph100%29.09 "Hg2 mi
11:50 AM36 °FLight rain. Low clouds.23 mph100%29.09 "Hg2 mi
11:20 AM34 °FLight rain. Fog.22 mph100%29.12 "Hg2 mi
10:50 AM36 °FRain. Fog.25 mph93%29.12 "Hg2 mi
10:20 AM34 °FDrizzle. Fog.23 mph100%29.12 "Hg2 mi
9:50 AM34 °FLight rain. Fog.28 mph100%29.15 "Hg2 mi
9:20 AM34 °FLight rain. Low clouds.26 mph100%29.15 "Hg2 mi
8:50 AM34 °FRain. Low clouds.28 mph100%29.18 "Hg2 mi
8:20 AM34 °FLight rain. Low clouds.24 mph100%29.18 "Hg2 mi
7:50 AM34 °FRain. Low clouds.26 mph100%29.21 "Hg2 mi
7:20 AM36 °FLight rain. Fog.26 mph93%29.21 "Hg2 mi
6:50 AM36 °FLight rain. Fog.25 mph93%29.24 "Hg2 mi
6:20 AM36 °FLight rain. Fog.25 mph100%29.24 "Hg2 mi
5:50 AM36 °FLight rain. Fog.25 mph100%29.27 "Hg2 mi
5:20 AM36 °FLight rain. Low clouds.22 mph100%29.30 "Hg1 mi
4:50 AM36 °FLight rain. Low clouds.24 mph100%29.30 "Hg1 mi
4:20 AM37 °FLight rain. Low clouds.23 mph93%29.33 "Hg1 mi
3:50 AM37 °FDrizzle. Low clouds.23 mph93%29.36 "Hg1 mi
3:20 AM37 °FDrizzle. Low clouds.24 mph93%29.36 "Hg1 mi
2:50 AM37 °FDrizzle. Low clouds.23 mph93%29.39 "Hg1 mi
2:20 AM37 °FDrizzle. Low clouds.24 mph93%29.42 "Hg1 mi
1:50 AM36 °FDrizzle. Mostly cloudy.24 mph100%29.42 "Hg1 mi
1:20 AM37 °FLight rain. Mostly cloudy.26 mph93%29.45 "Hg1 mi
Weather by CustomWeather, © 2015

See weather overviewHow to use our weather pages